Weather History for Thomson, GA

Change the Weather History Date:

Tuesday, February 5, 2013

  Actual Average (KDBN) Record (KDBN)
Temperature  
Mean Temperature 47 °F -  
Max Temperature 64 °F 59 °F 83 °F (1957)
Min Temperature 30 °F 32 °F 13 °F (1970)
Degree Days  
Heating Degree Days 18    
Moisture  
Dew Point 42 °F    
Average Humidity 85    
Maximum Humidity 100    
Minimum Humidity 58    
Precipitation  
Precipitation 0.00 in - - ()
Sea Level Pressure  
Sea Level Pressure 30.05 in    
Wind  
Wind Speed 2 mph (WSW)    
Max Wind Speed 14 mph    
Max Gust Speed 20 mph    
Visibility 10 miles    
Events      
Averages and records for this station are not official NWS values.
T = Trace of Precipitation, MM = Missing Value Source: NWS Daily Summary

Daily Weather History Graph

Daily Weather History Graph

Search for Another Location

Airport:

Trip Planner

Search our weather history database for the weather conditions in past years. The results will help you decide how hot, cold, wet, or windy it might be!

Date:

Astronomy

Feb. 05, 2013 Rise Set
Actual Time 7:23 AM EST 6:05 PM EST
Civil Twilight 6:57 AM EST 6:31 PM EST
Nautical Twilight 6:27 AM EST 7:01 PM EST
Astronomical Twilight 5:58 AM EST 7:30 PM EST
Moon 2:58 AM EST (2/5) 1:27 PM EST (2/5)
Length of Visible Light 11h 34m
Length of Day
10h 42m
Waning Crescent, 27% of the Moon is Illuminated
Feb 5
Waning Crescent
Feb 10
New
Feb 17
First Quarter
Feb 25
Full
Mar 4
Last Quarter

Hourly Weather History & Observations

Time (EST) Temp. Windchill Dew Point Humidity Pressure Visibility Wind Dir Wind Speed Gust Speed Precip Events Conditions
12:15 AM 37.8 °F - 36.1 °F 94% 30.07 in 10.0 mi Calm Calm - N/A   Clear
12:35 AM 36.5 °F - 35.4 °F 96% 30.06 in 10.0 mi Calm Calm - N/A   Clear
12:55 AM 37.4 °F - 35.8 °F 94% 30.06 in 10.0 mi Calm Calm - N/A   Clear
1:15 AM 37.9 °F - 35.2 °F 90% 30.06 in 10.0 mi Calm Calm - N/A   Clear
1:35 AM 37.4 °F - 35.2 °F 92% 30.06 in 10.0 mi Calm Calm - N/A   Clear
1:55 AM 36.7 °F - 35.1 °F 94% 30.05 in 10.0 mi Calm Calm - N/A   Clear
2:15 AM 37.4 °F - 34.7 °F 90% 30.04 in 10.0 mi Calm Calm - N/A   Clear
2:35 AM 36.9 °F - 34.7 °F 92% 30.03 in 10.0 mi Calm Calm - N/A   Clear
2:55 AM 36.0 °F - 33.8 °F 92% 30.03 in 10.0 mi Calm Calm - N/A   Clear
3:15 AM 35.4 °F - 33.4 °F 92% 30.04 in 10.0 mi Calm Calm - N/A   Clear
3:35 AM 34.3 °F - 33.1 °F 95% 30.04 in 10.0 mi Calm Calm - N/A   Clear
3:55 AM 34.3 °F - 33.4 °F 97% 30.04 in 10.0 mi Calm Calm - N/A   Clear
4:15 AM 32.4 °F - 32.4 °F 100% 30.04 in 10.0 mi Calm Calm - N/A   Clear
4:35 AM 33.1 °F - 32.9 °F 99% 30.04 in 10.0 mi Calm Calm - N/A   Clear
4:55 AM 32.5 °F - 32.4 °F 99% 30.03 in 10.0 mi Calm Calm - N/A   Clear
5:15 AM 32.5 °F - 32.4 °F 99% 30.03 in 10.0 mi Calm Calm - N/A   Clear
5:35 AM 32.0 °F - 32.0 °F 100% 30.04 in 10.0 mi Calm Calm - N/A   Clear
5:55 AM 32.5 °F - 32.2 °F 99% 30.04 in 10.0 mi Calm Calm - N/A   Clear
6:15 AM 32.0 °F - 32.0 °F 100% 30.04 in 10.0 mi Calm Calm - N/A   Clear
6:35 AM 32.4 °F - 32.2 °F 99% 30.05 in 10.0 mi Calm Calm - N/A   Clear
6:55 AM 32.2 °F - 32.2 °F 100% 30.06 in 10.0 mi Calm Calm - N/A   Clear
7:15 AM 30.2 °F - 30.2 °F 100% 30.07 in 10.0 mi Calm Calm - N/A   Clear
7:35 AM 30.9 °F - 30.9 °F 100% 30.08 in 10.0 mi Calm Calm - N/A   Scattered Clouds
7:55 AM 32.5 °F - 32.5 °F 100% 30.08 in 10.0 mi Calm Calm - N/A   Scattered Clouds
8:15 AM 37.4 °F - 35.2 °F 92% 30.08 in 10.0 mi Calm Calm - N/A   Scattered Clouds
8:35 AM 40.1 °F 38.0 °F 36.0 °F 85% 30.08 in 10.0 mi SSW 3.5 mph - N/A   Mostly Cloudy
8:55 AM 41.7 °F 39.8 °F 37.6 °F 85% 30.08 in 10.0 mi SSW 3.5 mph - N/A   Overcast
9:15 AM 46.6 °F - 39.4 °F 76% 30.08 in 10.0 mi SSW 3.5 mph - N/A   Mostly Cloudy
9:35 AM 49.3 °F - 39.7 °F 70% 30.09 in 10.0 mi SSW 3.5 mph - N/A   Scattered Clouds
9:55 AM 52.0 °F - 41.2 °F 67% 30.08 in 10.0 mi SSW 3.5 mph - N/A   Scattered Clouds
10:15 AM 54.3 °F - 42.8 °F 65% 30.09 in 10.0 mi West 4.6 mph - N/A   Clear
10:55 AM 58.1 °F - 45.9 °F 64% 30.09 in 10.0 mi West 4.6 mph - N/A   Mostly Cloudy
11:15 AM 61.7 °F - 48.9 °F 63% 30.08 in 10.0 mi West 6.9 mph - N/A   Mostly Cloudy
11:55 AM 61.5 °F - 48.2 °F 62% 30.07 in 10.0 mi SW 9.2 mph - N/A   Overcast
12:15 PM 61.7 °F - 48.6 °F 62% 30.07 in 10.0 mi WSW 6.9 mph - N/A   Overcast
12:35 PM 61.7 °F - 48.6 °F 62% 30.06 in 10.0 mi West 13.8 mph - N/A   Overcast
12:55 PM 61.2 °F - 49.1 °F 65% 30.05 in 10.0 mi WNW 10.4 mph 19.6 mph N/A   Overcast
1:15 PM 62.8 °F - 48.4 °F 59% 30.04 in 10.0 mi WSW 6.9 mph - N/A   Overcast
1:55 PM 62.4 °F - 48.0 °F 59% 30.03 in 10.0 mi West 9.2 mph - N/A   Overcast
2:15 PM 62.2 °F - 48.4 °F 60% 30.03 in 10.0 mi WSW 6.9 mph - N/A   Overcast
2:35 PM 62.1 °F - 48.7 °F 62% 30.03 in 10.0 mi West 8.1 mph - N/A   Overcast
2:55 PM 64.4 °F - 49.1 °F 58% 30.03 in 10.0 mi West 9.2 mph - N/A   Overcast
3:15 PM 63.0 °F - 49.3 °F 61% 30.02 in 10.0 mi WSW 10.4 mph 18.4 mph N/A   Overcast
3:35 PM 62.4 °F - 49.3 °F 62% 30.02 in 10.0 mi West 13.8 mph - N/A   Overcast
3:55 PM 62.8 °F - 49.3 °F 61% 30.02 in 10.0 mi West 10.4 mph - N/A   Mostly Cloudy
4:15 PM 63.1 °F - 49.5 °F 61% 30.02 in 10.0 mi West 8.1 mph - N/A   Scattered Clouds
4:35 PM 62.1 °F - 49.3 °F 63% 30.02 in 10.0 mi North - - N/A   Mostly Cloudy
4:55 PM 61.7 °F - 49.3 °F 64% 30.03 in 10.0 mi West 4.6 mph - N/A   Overcast
5:15 PM 61.3 °F - 49.8 °F 66% 30.02 in 10.0 mi Calm Calm - N/A   Overcast
5:55 PM 57.7 °F - 49.5 °F 74% 30.01 in 10.0 mi Calm Calm - N/A   Scattered Clouds
6:15 PM 57.2 °F - 49.5 °F 75% 30.01 in 10.0 mi Calm Calm - N/A   Clear
6:35 PM 53.2 °F - 48.6 °F 84% 30.02 in 10.0 mi Calm Calm - N/A   Clear
6:55 PM 51.8 °F - 48.2 °F 88% 30.03 in 10.0 mi Calm Calm - N/A   Clear
7:15 PM 50.7 °F - 48.2 °F 91% 30.03 in 10.0 mi Calm Calm - N/A   Clear
7:35 PM 50.5 °F - 48.2 °F 92% 30.03 in 10.0 mi Calm Calm - N/A   Scattered Clouds
7:55 PM 48.0 °F - 46.4 °F 94% 30.04 in 10.0 mi Calm Calm - N/A   Scattered Clouds
8:15 PM 47.3 °F - 46.6 °F 97% 30.05 in 10.0 mi Calm Calm - N/A   Scattered Clouds
8:35 PM 47.5 °F - 46.8 °F 97% 30.05 in 10.0 mi Calm Calm - N/A   Mostly Cloudy
8:55 PM 47.7 °F - 47.3 °F 99% 30.05 in 10.0 mi Calm Calm - N/A   Overcast
9:15 PM 48.4 °F - 47.3 °F 96% 30.06 in 10.0 mi Calm Calm - N/A   Overcast
9:35 PM 48.4 °F - 47.5 °F 97% 30.06 in 10.0 mi Calm Calm - N/A   Overcast
9:55 PM 48.4 °F - 47.5 °F 97% 30.06 in 10.0 mi Calm Calm - N/A   Overcast
10:15 PM 48.7 °F - 48.4 °F 99% 30.07 in 10.0 mi Calm Calm - N/A   Overcast
10:35 PM 49.1 °F - 49.1 °F 100% 30.07 in 10.0 mi South 3.5 mph - N/A   Overcast
10:55 PM 49.1 °F - 49.1 °F 100% 30.08 in 10.0 mi Calm Calm - N/A   Mostly Cloudy
11:15 PM 49.1 °F - 49.1 °F 100% 30.07 in 10.0 mi Calm Calm - N/A   Overcast
11:35 PM 48.9 °F - 48.9 °F 100% 30.08 in 10.0 mi Calm Calm - N/A   Overcast
11:55 PM 48.4 °F - 48.4 °F 100% 30.08 in 10.0 mi Calm Calm - N/A   Overcast